Back to catalog

YAOGAN-43 O1G

AliveMilitaryVLEO
NORAD 60464·PAYLOAD·🇨🇳 China

Launched Aug 16, 2024 from Xichang Satellite Launch Center

Loading…

Next Passes (next 24 hours)

TLE

FreshSource: Space-Track

Epoch: Sep 14, 2026, 13:52 UTC

1 60464U 24148G   26257.57831596  .00005973  00000-0  19630-3 0  9991
2 60464  35.0023 300.3422 0006899 253.3512 106.6448 15.30847481115986

Track YAOGAN-43 O1G in real time with AllMySat

Download on the App Store